This is the latest recevied weather packets stored in our database for station/object WC0AA-WX. If no packets are shown the sender has not sent any weather packets the latest 1 day(s).
| Time | Temp. | Humidity | Pressure | Rain* | Wind** | Luminosity | Snow |
|---|---|---|---|---|---|---|---|
| 1777991857 | 8.89° C | 83% | 1013.1 hPa | 0 mm | 0 m/s | - | - |
| 1777991256 | 8.89° C | 85% | 1012.8 hPa | 0 mm | 0 m/s | - | - |
| 1777990054 | 8.89° C | 84% | 1012.4 hPa | 0 mm | 0 m/s | - | - |
| 1777989454 | 8.89° C | 82% | 1012.5 hPa | 0 mm | 0 m/s | - | - |
| 1777988852 | 8.89° C | 83% | 1012.5 hPa | 0 mm | 0 m/s | - | - |
| 1777988251 | 8.89° C | 83% | 1012.5 hPa | 0 mm | 0 m/s | - | - |
| 1777987650 | 8.89° C | 82% | 1012.5 hPa | 0 mm | 0 m/s | - | - |
| 1777987049 | 8.33° C | 83% | 1012 hPa | 0 mm | 0 m/s | - | - |
| 1777985246 | 8.33° C | 84% | 1012.1 hPa | 0 mm | 3.58 m/s, 354° | - | - |
| 1777984044 | 8.33° C | 80% | 1011.7 hPa | 0 mm | 2.24 m/s, 92° | - | - |
| 1777983443 | 8.33° C | 80% | 1012 hPa | 0 mm | 0 m/s | - | - |
| 1777982241 | 9.44° C | 69% | 1011.7 hPa | 0 mm | 0 m/s | - | - |
| 1777981039 | 9.44° C | 66% | 1010 hPa | 0 mm | 4.02 m/s, 37° | - | - |
| 1777980438 | 9.44° C | 66% | 1010.1 hPa | 0 mm | 0 m/s | - | - |
| 1777979837 | 9.44° C | 65% | 1009.8 hPa | 0 mm | 0 m/s | - | - |
| 1777979236 | 9.44° C | 66% | 1009.8 hPa | 0 mm | 0 m/s | - | - |
| 1777978034 | 10° C | 65% | 1009.9 hPa | 0 mm | 4.47 m/s, 58° | - | - |
| 1777975030 | 11.11° C | 55% | 1009.8 hPa | 0 mm | 6.26 m/s, 36° | - | - |
| 1777974429 | 11.11° C | 55% | 1009.8 hPa | 0 mm | 0 m/s | - | - |
| 1777973827 | 11.11° C | 54% | 1009.9 hPa | 0 mm | 0 m/s | - | - |
| 1777973227 | 11.11° C | 54% | 1010 hPa | 0 mm | 4.02 m/s, 11° | - | - |
| 1777972626 | 11.11° C | 54% | 1010 hPa | 0 mm | 4.02 m/s, 9° | - | - |
| 1777972025 | 11.11° C | 53% | 1009.8 hPa | 0 mm | 5.36 m/s, 351° | - | - |
| 1777971424 | 11.67° C | 52% | 1010 hPa | 0 mm | 6.71 m/s, 22° | - | - |
| 1777970823 | 11.67° C | 52% | 1010 hPa | 0 mm | 5.36 m/s, 36° | - | - |
* Rain latest hour (hover to see other rain measurements)
** Current wind speed in m/s (hover to see current wind gust speed)